Theta_e
308 308 307 308 308 308 307 306 306 307 307 308 309 309 310 312 314 315 316 317 317 317 318 318 318 318 318 319 319 319 319 319 319 319 318 318 318 318 318 318 318 318 318 318 317 317 317 317 317 317 317 317 317 317 316 316 316 315 315 315 316 316 317 317 318 318 318 318 318 318 319 318 318 317 317 317 317 317 317 316 316 315 316 316 317 317
307 308 308 308 309 308 308 306 305 305 306 306 307 307 308 310 311 313 315 316 317 317 317 318 318 318 318 318 319 319 319 319 319 318 318 318 318 318 318 318 318 318 318 317 317 317 317 317 317 317 317 317 316 316 316 316 315 315 315 315 316 316 316 317 318 318 318 318 319 319 318 317 317 316 316 317 317 317 317 316 316 315 315 316 317 317
306 306 307 307 307 308 307 305 304 304 305 306 306 307 308 309 310 311 312 314 315 316 317 317 317 318 318 318 318 319 319 319 319 319 319 319 319 318 318 318 318 318 317 317 317 317 317 317 317 317 316 316 316 315 315 315 315 315 315 315 316 316 316 317 317 318 318 319 319 318 317 316 315 315 316 316 316 317 317 316 316 315 315 316 316 316
304 304 305 305 305 305 305 304 304 303 304 305 305 306 307 308 308 309 310 312 313 315 316 317 317 317 317 318 318 318 319 319 319 319 319 319 319 318 318 318 317 317 317 317 317 317 317 317 316 316 316 315 315 315 315 315 315 315 315 316 316 316 316 316 317 318 318 318 318 318 316 315 315 315 315 315 316 316 317 316 316 315 315 316 316 316
304 304 304 304 304 304 304 304 302 301 301 302 303 304 305 306 307 308 309 310 311 313 314 316 316 317 317 317 317 318 318 319 319 319 319 319 318 318 317 317 317 317 317 317 317 317 317 317 316 316 316 315 315 314 314 314 315 315 315 316 316 316 316 316 316 317 317 317 317 317 316 315 315 315 314 315 315 316 316 316 315 315 315 316 316 316
306 306 306 305 305 305 304 304 302 301 300 301 301 302 303 304 305 306 307 308 310 311 313 315 316 316 317 317 317 317 318 318 319 319 318 318 318 317 317 317 317 317 317 317 317 317 317 317 317 317 316 315 314 314 314 314 314 314 315 315 316 316 316 316 316 316 316 316 316 316 315 315 315 314 314 315 315 316 316 316 315 315 315 316 316 315
307 307 307 306 306 305 305 304 303 302 301 300 300 300 301 302 303 305 306 307 308 310 312 314 315 316 316 316 316 316 317 317 318 318 318 318 317 317 317 317 317 317 317 317 317 317 317 317 317 317 316 316 315 314 314 314 314 314 314 315 315 316 316 316 316 316 316 315 315 315 315 315 314 314 314 315 315 315 315 315 315 315 315 316 315 314
305 305 305 306 305 305 305 304 303 302 301 301 300 300 301 301 302 303 304 305 306 308 310 312 314 315 315 316 316 316 316 317 317 317 317 317 317 317 317 317 317 317 317 317 317 317 316 316 317 317 317 316 315 315 315 314 314 314 314 314 314 315 315 315 316 316 315 315 315 315 314 314 314 314 314 315 315 315 315 314 314 314 315 315 315 314
303 303 304 304 304 304 304 304 303 302 302 302 301 301 302 302 302 302 302 303 305 306 309 311 312 314 315 315 315 315 316 316 317 317 317 317 317 317 317 317 317 317 317 317 317 316 316 316 316 317 317 316 316 315 315 315 314 314 313 313 314 314 315 315 315 315 315 315 315 314 314 314 314 314 314 314 314 314 314 314 314 314 314 314 314 313
303 303 303 303 304 304 304 303 303 303 303 303 303 303 303 303 303 303 303 303 303 304 306 309 311 313 313 314 315 315 315 316 316 316 317 317 316 316 317 317 317 317 316 316 316 316 316 316 316 316 316 316 316 315 315 315 314 313 313 312 313 313 314 315 315 315 315 315 314 314 314 314 314 314 314 314 314 314 314 314 314 314 314 314 313 313
303 303 304 304 304 304 304 304 304 304 304 304 304 304 304 304 304 304 304 303 303 303 304 307 309 311 312 313 314 314 315 315 316 316 316 316 316 316 316 316 316 316 316 316 316 316 316 316 316 316 316 316 315 315 315 314 314 313 312 312 312 312 313 314 315 315 315 314 314 313 313 314 314 313 313 313 313 313 313 313 314 314 314 314 313 313
302 303 303 303 304 304 305 305 305 305 304 304 305 304 304 304 304 304 304 304 303 303 303 305 306 308 310 312 313 313 314 314 315 315 316 316 316 316 316 315 315 315 315 315 315 315 315 316 316 315 315 315 315 314 314 314 313 313 312 312 311 311 312 313 314 315 314 314 313 313 313 313 313 313 313 312 312 312 313 313 313 313 313 313 313 313
300 301 301 302 302 303 304 305 306 305 305 304 304 304 304 304 304 304 304 303 303 302 303 304 305 306 308 309 311 312 313 313 314 314 315 315 315 315 315 315 314 314 315 315 315 315 315 315 315 315 315 315 314 314 314 313 313 313 312 312 311 311 311 312 313 314 314 314 313 313 313 313 313 313 313 312 312 312 312 312 312 313 313 313 313 313
298 299 300 301 301 302 302 303 304 305 304 304 304 304 304 303 303 304 304 304 303 303 302 303 304 306 306 307 309 310 311 311 312 313 313 313 314 314 314 314 314 314 314 314 314 315 315 315 315 315 314 314 314 313 313 313 313 313 313 312 311 310 311 312 313 313 313 313 313 313 313 313 313 313 313 312 312 312 312 312 312 312 313 313 313 313
298 298 299 300 300 301 302 302 303 303 303 303 304 303 303 303 303 303 304 304 304 303 303 304 304 305 305 306 307 308 309 310 310 311 311 312 313 313 313 313 313 314 314 314 314 314 314 314 314 314 314 314 314 313 313 313 313 313 312 311 310 310 310 311 312 313 313 313 313 313 313 313 313 313 313 313 313 313 313 313 313 313 313 313 313 313
296 297 298 298 299 300 301 301 302 302 303 303 303 303 303 303 303 303 303 304 304 304 304 304 304 304 304 304 305 306 308 308 309 309 310 311 312 312 312 312 312 313 313 313 314 314 314 314 313 313 313 313 313 313 313 313 313 313 312 311 310 310 310 311 312 312 312 313 313 313 313 313 313 313 312 313 313 313 314 314 314 314 314 313 313 312
295 295 296 297 297 298 299 300 301 302 302 303 303 303 303 303 303 303 303 303 303 304 304 304 304 304 304 304 304 305 306 307 307 308 308 309 310 311 311 311 311 311 312 312 313 313 313 313 313 313 313 313 313 313 313 313 312 312 312 310 310 310 311 311 312 312 312 312 312 312 313 312 312 312 312 313 313 314 314 314 314 314 314 313 312 312
294 294 295 295 296 297 297 299 300 301 301 302 303 304 304 304 304 303 303 303 303 304 304 304 304 304 304 305 304 304 304 305 306 306 307 307 308 309 309 310 310 310 311 311 312 312 313 313 312 312 312 312 312 312 312 312 312 312 311 310 309 310 310 311 311 312 312 312 312 312 312 312 312 312 312 312 313 313 313 314 314 313 313 312 312 311
293 293 294 294 295 295 296 297 298 299 300 301 302 303 304 304 304 304 304 303 303 303 304 304 304 304 304 304 304 304 303 304 305 305 306 306 307 307 308 308 308 309 309 310 310 311 312 312 312 312 312 312 312 312 312 312 311 311 311 310 309 309 310 311 311 311 311 312 312 312 312 312 312 312 311 312 312 312 312 312 312 312 312 311 311 310
293 293 293 293 294 294 295 295 296 297 298 299 300 301 302 303 304 305 304 304 304 304 304 304 304 304 304 304 303 303 303 303 304 304 305 305 306 306 306 307 307 308 308 309 309 310 310 311 311 312 312 312 311 311 311 311 311 311 310 310 309 309 310 311 311 311 311 311 311 312 312 312 312 311 311 311 311 311 311 311 311 311 311 310 310 309
292 292 292 293 293 293 294 294 294 295 296 297 298 299 300 302 303 304 304 304 304 304 304 304 304 304 304 304 303 303 303 303 303 303 304 304 305 305 306 306 306 307 307 308 308 309 309 310 310 311 311 311 311 311 311 311 311 311 310 309 309 309 310 311 311 311 311 311 311 311 311 311 311 311 311 311 310 310 310 310 310 310 310 309 309 309
292 292 292 293 293 293 293 293 293 293 294 295 296 297 298 300 301 302 303 303 304 304 304 304 304 304 304 304 303 303 302 302 302 302 303 303 304 304 305 305 306 306 306 307 307 308 308 309 309 310 311 311 311 311 311 311 311 310 310 309 309 309 310 311 311 311 311 311 311 311 311 311 311 311 311 310 310 310 310 310 310 309 309 309 308 308
292 292 293 293 293 294 294 294 294 294 294 294 294 295 296 297 299 300 301 303 303 304 304 305 305 305 304 304 303 302 302 302 302 302 303 303 303 304 304 305 305 305 305 306 307 307 307 308 308 309 310 310 311 311 311 311 310 310 310 309 309 309 310 311 311 311 311 311 311 311 311 311 311 311 310 310 310 310 310 309 309 309 309 308 308 308
292 293 293 293 294 294 294 294 294 294 294 294 294 294 294 295 296 297 299 300 301 302 303 304 304 304 304 303 303 302 302 302 302 302 303 303 303 303 304 304 304 304 305 305 306 306 307 307 308 308 309 310 310 310 311 310 310 310 309 309 309 309 310 311 311 311 311 311 310 310 310 310 310 310 310 310 310 310 310 309 309 309 308 308 308 308
292 293 294 294 294 294 294 294 294 295 295 295 295 295 295 295 295 295 296 297 298 299 300 301 302 302 302 302 302 302 302 302 302 302 303 303 303 303 304 304 304 304 304 305 305 305 306 306 307 308 308 309 309 310 310 310 310 310 309 309 309 309 310 311 311 311 310 310 310 310 310 310 310 310 310 310 310 310 309 309 309 308 308 308 308 308
291 292 293 294 294 295 295 295 295 295 296 296 296 296 296 296 296 296 295 296 296 297 298 299 300 301 301 302 302 302 302 302 303 302 302 303 303 303 303 304 304 303 304 304 304 305 305 306 306 307 307 308 308 309 309 309 309 309 309 309 309 309 310 311 311 311 310 310 310 310 310 310 310 310 310 310 310 309 309 309 309 308 308 308 308 307
290 291 292 292 293 294 294 295 295 295 296 296 296 296 296 297 297 297 296 296 296 296 297 299 300 301 302 302 302 302 302 303 303 302 302 303 303 304 304 304 304 303 303 303 304 304 304 305 305 306 306 307 307 307 308 309 309 309 309 308 309 309 310 311 311 310 310 310 310 309 310 310 310 310 310 309 309 309 309 309 308 308 308 308 307 307
289 289 290 290 291 292 292 293 294 295 295 295 296 296 296 297 297 297 297 297 297 297 298 299 300 301 302 302 302 302 302 303 303 302 302 303 303 304 304 304 304 303 303 303 303 303 303 304 304 305 305 306 306 307 307 308 308 308 308 308 309 310 310 310 310 310 310 309 309 309 309 309 309 309 309 309 309 309 309 308 308 308 308 307 307 307
288 288 288 289 289 290 290 291 292 293 294 294 295 295 295 296 296 297 297 297 297 297 297 298 300 301 302 302 302 302 303 303 302 302 302 303 303 303 304 304 304 303 303 303 303 303 303 303 304 304 305 305 306 306 306 307 307 308 308 308 309 310 310 310 310 310 310 309 309 309 309 309 309 309 309 309 309 308 308 308 307 307 307 307 307 307
289 289 289 289 289 289 289 289 290 291 292 293 293 294 294 294 295 296 296 296 297 297 297 298 299 300 301 302 302 302 302 302 302 302 301 303 303 303 303 304 303 303 302 302 302 302 302 303 304 304 305 305 305 306 306 307 307 307 308 308 309 309 310 310 310 310 309 309 309 309 309 309 309 309 309 309 308 308 308 307 307 307 307 307 307 306
290 290 290 290 290 290 289 289 289 289 290 291 292 293 293 293 294 294 295 295 296 296 297 297 298 299 300 301 301 301 301 302 301 301 301 302 303 303 303 304 303 303 303 302 302 302 302 302 303 304 304 304 305 305 306 306 307 307 308 308 308 308 309 309 309 309 309 309 309 309 309 308 308 308 308 308 308 308 307 307 307 307 307 307 306 306
290 290 290 290 290 290 290 290 290 289 289 290 290 291 292 293 293 293 294 294 295 296 296 297 297 298 298 300 301 301 301 301 301 301 301 302 302 303 303 304 303 303 303 302 302 302 302 302 303 303 304 304 304 305 305 306 306 307 307 307 307 308 308 308 308 308 308 308 308 308 308 308 308 308 308 308 307 307 307 307 307 307 307 307 306 306
290 290 290 290 290 291 291 291 290 290 289 289 289 290 291 291 292 293 293 294 295 296 296 297 297 297 297 298 300 301 301 301 301 301 301 302 302 303 303 304 303 303 303 302 302 302 302 302 303 303 303 303 304 304 304 305 305 306 307 307 307 307 307 307 307 307 307 307 307 307 307 307 307 308 308 307 307 307 307 307 307 307 307 306 306 306
288 289 289 289 289 290 290 290 290 290 289 289 289 289 290 290 291 292 292 293 294 295 296 296 296 297 297 298 299 300 300 301 301 301 301 301 302 302 303 303 303 303 303 302 302 301 301 302 302 303 303 303 303 303 304 304 304 305 306 306 307 307 307 307 306 306 306 307 307 307 307 307 307 307 307 307 306 306 306 306 306 306 306 306 306 306
288 288 288 288 288 288 288 289 289 289 289 289 289 289 289 290 290 291 292 292 293 294 294 295 295 296 296 297 298 299 300 300 301 301 301 301 301 302 302 302 303 303 303 303 302 301 301 301 302 302 302 302 302 302 303 303 303 304 305 306 306 307 307 307 306 306 306 306 306 306 306 306 306 306 306 306 306 306 306 306 306 306 306 306 306 306
288 288 288 288 288 288 288 288 289 289 289 290 290 290 290 290 290 291 291 292 292 293 293 294 294 295 296 297 298 299 299 300 300 301 301 301 301 301 302 301 302 302 303 303 302 302 301 301 301 301 302 302 301 301 301 302 302 303 303 304 305 306 306 306 306 306 306 306 306 306 306 306 306 306 306 306 305 305 306 306 306 306 305 305 305 304
288 288 288 288 288 289 289 289 289 290 290 290 290 291 291 291 291 291 291 291 292 292 293 293 294 294 295 296 297 298 299 300 300 301 301 301 301 301 301 301 301 301 302 303 302 302 301 301 301 301 301 301 301 301 300 301 301 301 302 302 303 304 305 305 305 306 306 306 306 306 306 306 306 306 306 305 305 305 305 305 305 305 305 304 303 302
288 289 289 289 289 289 290 290 290 290 290 290 290 291 291 291 291 291 291 291 291 292 292 293 293 294 294 294 295 296 297 299 300 301 301 301 301 301 301 300 300 301 302 303 303 302 302 301 300 300 300 300 301 301 301 300 300 300 300 301 302 302 303 304 304 305 305 305 305 305 305 305 305 305 305 305 305 305 305 305 305 304 303 302 301 299
289 289 289 289 289 290 290 289 289 290 290 290 290 291 291 290 291 291 291 291 291 291 292 292 293 293 293 293 294 294 295 297 299 300 300 301 301 301 300 300 301 301 302 302 303 303 302 301 300 300 299 299 299 300 300 300 300 300 300 300 300 300 301 302 303 304 304 305 305 305 305 305 305 305 305 305 305 305 305 305 305 304 303 301 299 297
289 289 289 289 289 289 289 289 289 289 290 290 290 290 290 290 291 291 291 291 292 292 292 292 292 292 293 292 293 293 294 295 297 298 299 300 300 300 300 300 301 301 302 302 302 302 302 301 301 301 300 300 299 299 299 299 300 299 299 299 298 299 300 301 302 302 303 304 304 304 304 304 304 305 304 304 304 305 305 305 305 304 303 302 299 297
288 288 288 288 289 289 289 289 289 289 289 289 290 290 290 290 290 291 291 292 292 292 292 292 292 293 293 293 293 293 293 295 296 297 298 299 299 300 300 300 301 301 302 302 302 302 302 301 301 301 300 300 299 299 299 299 299 299 299 299 299 299 299 300 300 301 302 303 303 303 304 304 304 304 304 304 304 304 305 305 305 304 303 302 301 299
288 288 288 288 288 289 289 289 289 289 289 289 289 289 290 290 290 290 291 291 292 292 292 292 293 294 294 293 293 293 293 295 296 297 298 299 299 300 300 300 301 301 302 302 302 301 301 301 301 300 300 300 299 299 299 299 299 299 299 299 299 299 299 299 299 300 301 301 302 302 303 303 303 303 303 303 303 304 304 304 304 303 303 302 301 299
288 288 288 288 288 288 288 289 289 289 289 289 289 289 290 290 290 290 291 291 292 292 292 293 294 294 294 294 293 293 294 295 296 297 298 299 299 300 300 300 301 301 302 302 301 301 301 300 300 300 300 300 300 299 299 298 298 298 298 299 299 298 297 297 298 299 300 300 301 301 302 302 302 303 303 303 303 303 303 303 302 302 302 301 300 298
288 288 288 288 289 289 289 289 289 289 289 289 289 289 289 289 290 290 291 291 291 291 292 293 294 294 294 294 294 294 294 295 296 297 298 299 299 300 300 300 301 301 302 301 301 301 300 300 300 300 300 300 300 299 299 299 298 297 297 298 298 298 298 298 299 299 299 300 300 300 301 301 302 302 302 302 302 302 302 302 302 301 301 299 298 296
289 288 288 288 288 288 289 289 289 289 289 289 289 289 289 289 289 290 290 291 291 292 292 293 293 294 294 294 294 295 295 296 296 297 298 298 299 299 300 300 301 301 301 301 301 300 300 300 299 299 299 299 299 299 299 299 298 298 297 297 297 298 299 300 300 300 299 299 299 300 300 301 301 301 301 301 302 302 302 302 302 302 301 298 295 293
286 287 287 287 288 288 288 289 289 289 289 289 289 289 290 290 290 290 290 291 292 292 292 292 293 294 294 294 295 295 295 296 296 297 297 298 299 299 300 300 300 301 301 300 300 300 300 300 300 299 299 298 298 298 299 299 299 298 297 297 297 297 298 298 299 299 300 299 299 299 300 300 300 301 301 301 301 301 301 301 302 301 301 297 294 291
287 287 287 287 288 288 288 288 289 289 289 289 289 290 290 290 290 290 291 291 292 292 292 293 293 293 294 294 295 295 296 296 296 297 297 298 299 299 299 300 300 300 300 300 300 300 300 300 300 300 299 298 298 297 298 298 298 298 297 297 296 296 297 297 298 299 299 300 300 299 299 299 300 300 300 300 301 301 300 300 301 301 299 296 293 290
287 287 287 287 288 288 288 288 289 289 289 290 290 290 290 291 291 291 291 292 292 292 292 293 293 293 294 294 295 295 295 296 296 296 297 298 298 299 299 299 300 300 300 300 299 299 299 299 300 300 300 299 299 298 297 297 297 297 297 297 296 296 296 297 297 298 298 299 299 300 299 299 299 299 300 300 300 300 300 300 300 299 298 294 291 289
287 287 287 287 288 288 288 288 289 289 290 290 290 290 291 291 291 291 291 291 292 292 292 293 293 294 294 294 294 295 295 295 296 296 297 297 298 299 299 299 299 299 299 299 299 298 298 298 298 299 299 300 299 299 298 297 297 297 297 297 296 296 296 296 297 297 297 298 299 299 299 299 300 300 300 300 300 299 299 299 299 298 296 292 290 288
287 287 287 287 288 288 288 289 289 289 290 290 290 291 291 291 291 291 291 291 292 292 293 293 293 293 294 294 294 294 295 295 295 296 296 297 298 298 299 299 299 298 298 298 298 298 298 297 297 297 298 298 299 299 299 298 297 296 296 296 296 296 296 296 296 296 297 297 298 298 298 299 299 299 299 300 300 300 299 299 298 297 296 292 289 288
287 287 287 288 288 288 289 289 289 289 290 290 290 290 291 291 291 291 291 291 292 293 293 293 293 293 293 294 294 294 295 295 295 295 296 297 297 298 298 298 298 298 297 297 297 297 297 296 296 296 296 297 297 298 298 298 298 296 296 295 295 296 296 296 296 296 296 297 297 297 297 298 298 298 298 299 299 299 299 298 298 297 295 292 289 287
Wind_Speed
33 34 34 33 33 34 35 35 34 33 33 33 32 32 32 32 31 30 28 27 26 25 25 24 24 24 25 27 30 33 36 38 39 39 39 39 39 38 38 37 36 34 32 30 29 28 29 29 30 30 30 30 30 30 30 30 29 28 28 27 25 24 23 23 23 24 25 25 26 26 25 23 21 21 21 22 22 21 20 19 17 16 17 21 24 27
32 32 31 30 31 32 34 35 35 34 33 33 32 31 31 32 32 31 30 29 28 27 26 25 24 24 24 25 27 30 32 35 37 38 38 38 38 37 36 35 33 31 30 29 29 29 29 30 30 29 29 29 29 29 29 29 28 28 28 26 25 23 23 22 22 23 23 24 24 23 22 21 20 21 21 21 21 21 20 19 18 17 18 21 24 27
30 30 31 32 32 32 33 35 36 34 34 33 32 32 32 33 33 32 31 30 29 28 28 27 26 25 24 24 25 26 29 31 34 36 37 37 37 36 34 33 31 30 30 29 29 29 29 29 28 27 27 27 27 27 27 28 28 28 27 25 24 23 23 22 22 23 23 23 23 22 21 21 21 21 21 21 20 20 20 19 18 18 19 21 24 26
31 31 32 34 34 34 35 36 36 35 34 34 34 34 34 34 34 33 31 30 30 29 29 28 27 26 25 24 24 25 26 29 32 34 35 36 35 34 33 32 31 31 30 30 29 29 28 27 27 26 25 25 26 26 27 27 27 27 26 25 24 23 23 23 23 23 23 23 23 22 21 21 21 21 21 20 19 19 19 19 18 18 19 22 24 24
31 30 31 32 33 33 34 34 35 36 36 36 36 36 36 36 36 34 33 31 31 30 30 29 28 27 25 24 24 24 26 28 31 33 34 34 34 34 33 32 32 32 31 31 30 29 28 27 26 26 26 25 25 26 26 27 27 27 26 25 24 23 23 23 24 24 24 23 22 22 22 22 22 22 21 20 19 18 18 18 18 18 20 22 24 23
30 30 30 31 31 31 31 33 35 37 37 37 37 37 37 37 37 36 34 32 31 30 30 30 29 28 26 25 24 24 26 28 31 33 34 34 34 34 34 33 33 32 32 31 30 29 28 27 27 27 27 27 26 26 26 27 26 26 26 25 24 23 23 23 24 24 24 24 23 23 23 22 22 22 20 19 18 18 17 17 17 18 21 23 24 23
32 32 32 32 32 32 33 34 36 37 37 37 37 37 38 38 38 37 36 34 32 31 31 30 30 29 28 26 25 25 26 29 31 33 34 35 35 35 34 34 33 33 32 31 30 29 29 28 29 29 29 28 28 28 27 27 27 26 26 26 25 24 23 23 24 24 24 24 24 24 23 23 22 21 20 18 17 17 17 17 17 19 22 24 24 22
33 33 33 32 32 33 34 35 37 37 37 36 36 37 36 37 38 38 37 35 33 32 31 31 31 30 29 28 27 26 27 29 31 33 35 36 36 36 35 35 34 33 32 30 30 29 29 30 30 30 30 29 29 29 29 28 28 27 27 27 26 25 24 24 24 24 24 24 24 23 22 22 21 20 18 17 17 17 17 17 17 19 22 24 24 22
33 33 32 32 31 31 32 35 35 35 34 34 35 35 34 35 37 38 37 36 35 33 32 32 32 31 31 30 29 29 29 30 32 34 35 36 37 37 36 36 35 33 32 31 30 30 30 31 31 31 30 30 30 31 30 30 29 28 28 28 27 27 25 25 24 24 24 23 23 22 21 21 20 19 17 17 16 17 17 17 18 20 22 24 23 21
32 32 31 32 32 32 32 33 33 33 32 31 31 32 32 33 34 36 36 38 37 36 34 33 33 33 32 32 31 31 32 32 33 34 36 37 38 38 37 37 36 34 33 31 31 31 31 32 32 32 31 31 31 32 32 31 30 28 28 28 28 28 27 25 24 24 23 23 22 21 20 20 19 18 17 16 16 17 18 18 19 20 22 23 22 20
32 32 32 32 32 33 33 33 33 33 32 30 29 31 32 32 32 33 35 37 38 37 36 35 34 34 34 33 33 33 34 34 35 36 36 37 38 38 37 36 36 34 33 32 31 32 32 33 34 33 32 32 32 33 33 32 30 28 28 28 29 29 27 26 25 24 23 22 21 21 20 20 19 18 17 16 17 18 19 20 21 22 23 23 21 19
31 31 31 31 32 32 32 32 32 31 30 28 28 30 33 33 32 31 32 35 37 37 36 36 35 35 35 35 35 35 35 36 36 37 38 38 38 38 37 36 35 34 33 32 32 32 33 34 34 34 34 33 33 33 33 32 30 29 28 28 28 29 28 26 25 23 22 22 21 21 21 20 19 18 17 17 17 18 20 22 23 23 23 22 20 19
30 30 31 31 32 32 32 32 31 30 29 28 28 30 31 33 33 32 33 35 37 37 36 36 36 37 37 37 36 36 36 36 37 38 38 39 38 38 37 36 35 35 34 33 33 33 34 34 35 35 35 35 34 34 33 32 31 29 28 28 28 28 28 27 25 23 22 22 22 22 22 21 20 19 18 18 18 18 19 21 23 23 22 21 21 21
29 29 29 30 31 32 32 33 32 30 30 30 30 30 31 32 32 32 32 35 36 36 36 36 36 37 38 38 38 37 37 37 38 39 39 40 39 38 37 36 36 36 35 35 34 34 34 34 35 35 36 36 35 34 34 32 31 30 30 29 28 27 27 26 25 23 23 22 22 22 22 21 20 19 19 18 18 19 19 20 22 22 23 23 24 24
27 27 27 28 28 29 30 31 31 31 32 32 32 32 32 32 31 31 32 34 35 36 36 36 36 37 39 40 40 39 39 39 40 40 41 42 41 40 38 37 37 36 36 36 36 36 35 35 35 35 36 36 36 35 34 33 32 32 31 29 27 26 26 25 24 23 23 23 23 22 21 21 20 20 19 19 19 20 21 22 24 25 26 27 28 27
27 27 27 28 29 29 28 29 30 31 32 32 32 31 31 31 32 32 33 33 34 34 34 34 35 38 40 42 42 41 41 41 42 43 43 44 44 43 40 39 37 37 37 37 38 37 36 35 35 35 36 36 36 35 34 33 33 33 32 29 27 25 25 24 24 24 24 24 23 23 22 21 20 20 20 21 22 23 26 27 29 30 31 31 30 29
28 28 28 29 29 29 28 28 28 30 31 31 31 31 31 32 32 32 32 33 33 33 33 33 33 33 35 38 41 42 42 42 42 43 44 45 45 45 43 41 40 39 39 38 38 38 38 36 36 35 36 37 36 35 34 34 34 33 32 29 26 25 24 24 24 24 25 25 24 24 23 22 21 21 22 23 25 27 29 31 33 33 33 32 30 28
29 28 29 29 29 29 28 27 27 28 29 30 30 31 32 33 33 33 33 33 33 33 34 34 34 33 31 30 35 40 41 40 40 41 42 43 45 45 44 42 41 41 40 40 39 39 38 38 37 36 36 37 37 36 34 34 34 33 31 29 26 25 25 24 24 25 26 26 26 25 24 23 23 23 24 26 27 29 30 31 32 32 32 30 28 26
32 30 29 29 29 30 29 29 29 29 29 30 30 30 31 33 33 33 33 34 34 35 35 34 35 36 35 32 33 36 37 36 37 37 39 41 43 43 43 42 41 41 41 40 40 40 39 39 38 38 38 38 37 36 35 35 34 33 31 29 27 26 26 25 25 26 26 27 27 26 26 25 24 24 26 27 29 29 30 30 31 31 30 29 27 25
34 33 31 31 31 31 31 31 30 30 30 30 30 31 32 32 33 33 33 34 34 35 35 35 36 37 38 37 36 36 36 36 36 36 38 39 41 41 41 40 39 39 39 40 40 40 39 39 39 39 39 39 39 38 37 36 35 33 31 29 28 28 27 27 27 27 28 28 28 28 27 27 26 26 26 28 29 29 29 30 31 31 30 29 27 25
34 34 33 32 31 31 32 31 31 31 30 31 32 32 33 33 33 32 33 33 34 36 37 38 38 38 38 37 36 36 36 37 37 37 37 38 38 39 40 38 37 37 37 38 38 38 38 38 39 39 40 40 40 40 38 37 35 34 32 30 29 29 29 29 28 28 29 29 29 29 28 28 27 27 26 27 27 27 28 30 31 31 30 28 27 25
35 36 35 33 32 32 34 33 33 32 31 32 33 34 36 36 35 34 33 33 34 37 39 41 41 40 38 37 37 38 39 39 38 37 36 35 36 37 37 36 34 34 34 35 36 36 37 37 38 39 40 41 41 41 40 38 36 34 32 31 31 31 31 30 30 29 29 29 29 29 29 29 28 27 26 25 25 25 26 27 29 29 29 27 26 25
36 37 37 37 36 36 36 36 36 35 33 33 34 35 36 37 38 37 34 32 32 34 37 39 41 40 39 38 40 42 43 42 40 37 35 33 32 33 34 33 32 31 32 33 33 34 35 36 37 38 40 41 41 41 41 39 38 35 33 32 32 32 32 31 30 30 30 30 30 30 30 29 28 27 25 24 23 23 24 25 26 27 27 26 26 26
35 36 38 38 39 39 39 39 39 37 36 34 34 34 36 37 39 40 39 36 34 32 32 32 34 37 38 39 42 45 47 45 41 37 35 34 33 33 33 32 30 30 30 31 31 31 32 34 36 37 39 40 41 41 41 40 38 36 34 33 33 33 33 32 31 30 30 30 31 31 31 30 28 26 25 23 23 23 24 24 25 26 26 26 27 27
34 35 35 37 38 38 39 39 39 38 37 37 36 36 36 36 38 40 42 42 41 40 38 36 37 38 39 41 43 46 48 47 43 39 36 35 34 33 33 31 30 29 29 29 29 29 30 32 34 36 38 39 40 41 41 40 39 37 35 35 35 35 34 32 31 31 30 31 31 31 31 30 28 26 24 23 23 24 24 25 25 26 27 27 28 29
35 35 36 36 36 37 37 37 38 38 39 39 39 39 39 38 38 38 40 42 43 43 42 43 43 42 42 44 47 50 51 49 46 41 37 35 34 33 34 32 30 29 29 28 28 27 28 30 32 34 35 37 38 39 40 39 38 37 36 35 36 36 34 33 32 31 31 31 32 32 31 30 28 26 24 24 24 25 25 26 26 27 27 28 28 29
35 36 37 37 37 37 37 37 37 38 38 38 39 39 39 39 39 39 39 39 39 39 40 42 44 45 45 44 47 50 52 51 47 42 37 35 35 36 35 33 31 29 28 28 27 27 27 28 30 31 32 33 35 36 37 37 37 36 36 36 37 36 35 33 32 32 32 32 32 32 32 30 28 26 25 24 25 25 26 26 27 27 27 28 28 29
35 36 38 39 40 40 40 39 39 38 37 36 36 35 35 36 38 41 41 38 35 36 38 41 42 42 43 43 45 48 49 49 46 41 36 34 36 37 37 33 31 29 28 27 27 27 27 28 29 30 30 30 31 32 33 34 35 35 36 36 37 36 35 34 33 32 33 33 33 33 32 30 28 26 25 25 25 26 26 27 27 27 28 28 28 28
34 34 36 38 40 42 43 44 44 42 41 39 37 35 33 33 35 38 39 37 35 36 38 40 39 38 38 39 41 44 45 45 43 39 34 34 37 39 37 33 31 29 28 27 26 27 27 28 29 29 29 29 29 30 31 32 32 33 35 36 36 36 35 34 33 33 34 34 34 33 32 30 28 26 26 26 26 27 27 27 28 28 28 28 28 27
36 35 35 35 36 38 41 44 46 46 45 43 41 39 36 34 34 35 36 35 35 36 38 39 38 36 35 34 34 36 38 41 39 36 33 34 38 39 37 34 32 30 28 27 27 27 29 29 29 30 30 29 30 31 32 33 33 34 35 36 36 36 36 35 35 35 35 35 34 34 32 31 29 27 26 26 27 27 28 28 29 29 28 28 28 27
39 39 39 37 36 35 36 39 42 45 46 46 45 44 41 39 37 36 35 34 34 36 37 38 38 37 36 33 30 29 33 38 38 35 33 35 38 39 37 34 33 31 30 29 29 29 29 31 31 30 30 30 31 33 36 37 37 38 38 39 39 39 38 38 37 37 36 36 35 34 33 31 29 28 27 27 28 28 29 29 29 29 28 28 28 27
39 40 40 39 38 36 36 36 38 40 43 45 45 45 44 42 41 39 37 35 34 35 37 37 37 38 38 37 34 31 31 36 38 36 33 35 37 38 37 35 33 32 31 30 30 31 30 31 32 32 31 32 33 36 38 40 41 41 42 42 43 42 42 41 40 39 38 37 37 35 34 32 30 29 28 28 29 29 29 29 29 28 28 28 27 27
37 37 38 37 36 35 32 32 34 38 41 43 44 45 45 44 42 41 39 37 35 35 35 36 37 37 38 39 39 36 33 34 36 36 34 35 37 38 37 35 34 33 32 31 31 32 32 33 33 33 33 34 35 38 40 42 43 44 44 45 45 44 43 43 42 41 40 39 38 36 35 33 31 30 29 29 29 30 29 29 28 28 27 27 27 27
37 38 38 38 37 36 35 35 37 39 42 43 43 44 45 44 43 42 41 40 38 36 36 36 37 38 37 39 40 39 36 35 36 36 36 36 38 39 38 37 36 35 33 32 32 33 34 35 35 34 34 35 37 39 42 44 45 46 46 46 46 45 45 44 43 42 41 40 39 37 36 34 32 31 30 30 30 30 29 28 28 27 27 27 26 26
37 37 38 38 39 39 39 38 39 39 39 39 40 40 41 42 42 42 41 41 40 39 39 38 38 38 38 38 39 39 37 36 37 39 40 40 40 40 39 39 38 37 35 34 34 34 35 36 35 35 34 36 38 41 43 45 46 47 47 47 47 46 46 45 44 43 42 41 39 38 36 34 33 32 31 31 31 30 29 28 27 27 26 26 26 25
35 36 37 38 39 39 37 37 37 37 37 37 37 38 38 39 39 39 39 39 39 39 39 39 39 38 38 38 39 39 39 39 40 41 43 44 44 42 41 41 41 39 37 36 36 36 36 36 36 35 35 36 39 42 44 45 46 47 47 48 47 47 47 46 45 44 43 41 40 38 36 34 33 32 32 31 31 30 28 27 27 26 26 26 25 25
36 37 38 39 40 39 37 36 36 36 37 37 37 37 37 36 36 37 37 37 38 38 38 39 38 38 38 38 38 38 38 39 41 44 46 48 48 46 43 43 42 40 38 37 37 37 37 37 36 35 35 37 40 42 44 45 46 46 47 47 47 47 47 46 45 44 43 41 40 38 36 34 33 32 32 31 30 29 28 27 27 26 26 26 25 24
39 40 40 40 40 39 37 37 36 36 36 37 37 37 37 37 36 36 36 36 37 37 37 37 38 39 39 39 38 37 36 37 39 44 47 49 49 47 44 43 42 41 39 38 37 37 37 38 37 35 35 37 40 43 45 45 46 46 46 47 47 46 46 46 45 44 43 42 40 38 36 35 34 33 32 31 31 30 29 28 27 27 26 25 24 23
38 37 37 37 37 36 36 36 35 34 35 36 37 37 38 38 38 37 36 36 36 36 36 37 37 38 39 39 38 37 36 36 38 40 43 45 45 44 42 42 41 40 39 38 37 36 37 38 38 37 37 37 39 42 45 46 47 46 46 45 45 45 45 45 44 44 43 41 40 38 37 35 34 33 33 32 31 30 29 29 28 27 27 26 25 24
35 35 34 35 35 35 34 35 34 34 34 35 36 36 37 38 38 37 36 35 35 35 36 36 36 37 38 39 39 38 37 36 38 40 41 42 41 39 39 39 40 39 38 38 37 36 36 37 38 39 39 38 39 41 44 46 47 48 47 45 43 43 43 43 43 42 42 41 39 38 37 36 35 34 33 32 31 30 29 28 28 27 27 26 26 26
36 36 35 36 35 34 33 33 33 33 33 33 33 34 35 36 37 36 35 35 36 35 35 35 35 36 36 37 38 37 36 35 37 39 41 41 39 36 36 36 37 38 38 38 37 36 35 36 38 39 40 40 40 41 44 46 48 48 48 46 45 44 43 43 42 41 40 40 39 38 37 36 35 34 33 31 30 29 28 27 27 26 26 26 26 27
36 36 37 37 36 35 34 34 33 32 32 32 33 33 34 34 35 36 37 37 36 36 36 36 35 35 36 36 36 36 34 34 35 37 39 40 38 36 35 36 37 37 38 37 35 34 34 35 37 39 40 40 40 40 42 45 47 48 49 48 47 46 43 42 41 41 40 39 38 38 37 36 35 34 32 31 30 28 27 26 25 25 25 25 26 26
37 38 38 37 36 35 34 33 32 32 32 32 33 33 33 33 33 33 34 35 36 36 36 36 36 35 34 35 35 34 33 33 34 36 38 39 39 38 37 37 38 38 38 36 34 33 33 35 36 38 39 39 39 40 41 43 45 47 48 48 48 46 43 42 42 41 40 39 38 38 37 36 35 34 32 31 29 28 26 25 24 24 23 24 25 26
38 36 35 35 34 33 33 33 33 33 33 33 34 34 34 34 33 32 32 33 34 35 35 35 34 33 33 34 34 33 33 33 34 35 37 38 39 39 39 40 40 39 37 35 33 33 34 35 37 38 38 39 39 39 40 42 44 46 47 48 48 47 46 45 44 42 41 39 39 38 37 36 35 34 32 31 29 28 26 25 24 23 23 23 23 25
30 31 31 32 32 32 33 34 34 34 33 33 34 35 35 34 34 33 33 33 33 33 33 34 33 31 30 32 32 31 32 33 34 35 36 38 39 40 40 41 40 39 36 34 32 32 34 36 37 38 38 38 38 38 39 40 42 45 46 47 48 48 48 48 46 44 43 41 40 39 38 37 35 34 32 31 29 28 27 26 25 24 23 23 24 25
32 32 32 32 32 32 33 34 34 34 34 35 36 36 35 35 34 33 33 33 32 32 32 32 31 30 30 31 30 30 31 33 35 36 37 39 40 41 41 41 40 37 34 33 32 32 33 34 36 37 38 38 38 38 38 39 41 43 45 47 48 47 47 47 46 45 44 43 41 40 39 37 36 34 33 32 30 29 27 26 25 24 24 24 25 25
32 32 33 33 33 33 34 33 33 34 35 36 36 35 35 34 34 33 33 33 33 32 31 30 30 30 30 30 30 30 31 32 34 36 39 41 42 42 41 41 39 36 34 32 31 31 32 32 33 34 36 37 38 38 38 38 39 41 44 46 47 47 47 46 46 46 45 44 43 42 40 39 37 35 34 32 31 30 28 27 25 25 24 24 25 26
34 34 34 34 33 34 35 35 35 34 34 34 35 35 35 33 33 33 33 33 33 32 31 29 29 29 30 31 31 32 33 34 35 37 40 42 43 43 41 41 39 37 35 33 33 33 33 32 33 33 35 36 37 38 38 38 39 40 42 45 46 47 47 47 47 46 46 45 44 43 42 40 39 37 35 34 32 30 29 28 26 25 25 24 25 26
35 36 35 35 35 35 35 35 35 34 34 34 34 35 35 33 33 33 33 33 33 32 31 29 28 28 29 30 31 32 34 35 37 39 41 43 44 43 42 41 40 39 37 36 35 35 34 33 33 33 34 34 35 36 37 37 38 39 41 43 45 46 47 47 46 46 46 46 45 44 43 41 40 39 37 36 34 32 30 29 27 26 25 25 25 26
36 37 36 35 35 35 35 35 34 34 35 35 34 34 33 33 33 33 33 33 33 33 32 29 28 28 29 30 31 33 34 35 37 40 41 43 44 43 42 42 41 40 39 38 37 36 35 34 34 34 34 33 33 34 35 35 36 37 39 42 43 45 46 47 46 46 46 46 45 44 43 42 41 40 38 37 35 34 32 30 29 28 27 26 26 26
36 37 37 36 35 35 36 36 35 35 35 35 34 33 32 31 30 31 31 32 33 33 31 29 28 29 29 30 32 33 35 36 38 39 41 42 43 42 42 42 42 41 40 38 37 35 34 33 33 33 33 34 33 32 32 33 34 36 38 41 42 43 45 46 46 46 46 46 45 45 43 42 41 40 39 38 36 35 33 31 30 29 28 27 27 27
Wind_Direction
279 281 282 282 282 281 280 279 278 278 278 278 277 276 274 271 269 268 269 271 270 269 266 265 265 265 265 264 262 259 255 251 248 245 243 244 245 246 247 248 248 247 245 243 242 241 243 245 246 248 248 248 248 248 249 248 247 245 245 246 246 245 243 240 236 232 228 226 227 230 232 234 236 241 245 248 249 250 251 249 245 238 233 232 230 226
280 281 280 280 279 279 279 278 278 278 278 278 278 277 275 272 269 266 265 266 268 267 265 264 264 265 266 264 262 259 256 253 250 248 248 248 248 249 248 247 244 242 240 239 240 243 246 248 250 250 249 249 248 248 247 246 245 244 244 244 244 242 240 237 233 229 226 226 228 230 231 233 236 240 243 246 248 250 250 248 243 236 232 231 228 225
279 278 276 274 273 273 274 275 276 276 276 277 276 276 275 273 270 267 265 265 265 265 264 262 261 262 264 264 263 261 258 255 252 251 249 248 247 246 244 241 238 237 237 239 242 246 248 250 250 249 248 247 246 245 244 243 243 242 242 242 242 239 236 233 229 226 224 224 225 226 228 231 234 237 241 244 246 248 248 245 239 233 228 228 226 224
278 277 276 275 274 273 272 273 274 275 274 274 274 274 273 273 272 270 267 265 264 263 262 260 259 259 261 262 263 262 259 256 253 250 247 245 243 240 237 235 234 234 237 241 245 248 249 249 247 246 245 244 243 242 241 241 241 241 241 241 239 237 234 231 228 225 224 224 224 225 228 232 235 237 239 242 244 245 245 241 235 229 225 226 227 227
279 278 277 277 276 275 274 274 274 274 274 273 272 272 271 272 272 271 270 267 265 263 260 258 257 257 258 260 262 262 260 255 250 246 243 240 237 234 232 231 232 235 239 244 247 249 249 247 246 244 243 242 240 239 239 239 240 240 240 239 238 236 234 231 229 228 228 229 231 233 235 237 238 238 239 240 241 241 240 236 230 225 223 225 227 230
280 279 279 279 278 277 276 276 276 275 274 273 271 270 270 270 271 271 271 269 266 262 259 256 255 254 255 257 260 262 260 254 247 241 237 234 232 230 230 231 233 237 242 246 249 249 248 247 246 244 242 240 238 238 238 238 239 240 240 238 236 234 233 232 231 231 232 234 237 240 241 240 239 238 237 237 236 235 233 230 225 222 223 225 229 232
278 278 279 280 280 279 278 278 277 276 275 274 273 271 270 269 269 270 270 269 267 263 258 254 252 251 252 254 258 261 260 254 247 240 235 232 230 229 230 232 235 239 244 247 249 249 248 247 246 245 242 239 237 237 237 238 239 241 241 239 235 233 231 231 231 232 234 236 239 241 241 239 236 233 232 231 229 227 225 222 220 220 223 227 231 233
277 277 277 277 278 279 278 278 277 277 276 275 275 274 272 271 270 269 268 268 266 262 258 253 250 249 250 252 256 260 260 256 249 242 237 233 231 231 232 234 238 242 245 247 248 248 247 246 246 244 241 237 236 236 237 238 240 242 242 240 236 232 229 228 229 231 233 236 238 239 237 233 229 226 225 224 223 221 219 217 216 218 223 228 232 233
278 278 278 277 276 276 277 277 278 278 278 277 276 275 274 273 273 271 269 267 265 261 257 252 249 248 248 250 253 257 259 258 253 247 242 238 236 235 236 238 241 244 247 248 248 247 246 246 245 244 240 236 235 236 238 240 241 243 243 242 238 233 228 226 227 229 231 234 236 234 230 226 221 219 218 219 218 217 216 215 215 218 223 229 232 232
280 280 280 279 278 277 277 278 278 279 280 278 276 274 272 272 272 272 271 269 266 261 256 252 248 246 246 248 250 253 256 256 255 252 248 244 242 241 242 244 246 248 249 249 248 247 246 246 245 244 240 236 235 237 239 242 243 244 244 243 239 234 229 225 225 226 228 230 230 228 223 219 215 213 214 215 216 216 215 215 216 219 224 228 231 231
280 279 278 279 280 281 281 279 279 281 282 279 276 274 272 271 269 269 270 269 267 264 259 254 249 246 246 246 247 248 251 252 253 252 251 249 248 248 248 250 251 251 251 251 249 248 247 246 246 244 242 239 238 240 242 244 245 246 245 244 242 237 230 226 224 224 225 225 224 221 217 215 212 212 212 214 215 215 214 215 217 220 224 227 229 230
278 277 277 278 280 281 280 280 279 280 279 276 273 271 271 270 268 266 266 267 267 266 264 259 253 248 246 246 246 246 248 250 251 251 251 251 251 252 252 253 253 253 252 251 249 247 246 246 246 245 244 243 243 243 245 246 247 246 246 246 244 239 232 226 223 221 221 221 219 217 215 214 213 212 213 214 215 215 214 215 216 219 222 226 228 229
277 277 277 277 276 276 276 277 277 277 275 272 269 267 267 270 270 269 268 268 268 267 266 264 260 255 250 248 247 248 249 250 251 251 252 252 252 252 253 253 253 253 252 250 248 246 245 245 245 245 245 245 245 246 246 246 246 245 246 247 245 240 232 226 222 219 218 217 217 216 216 216 215 215 214 215 215 215 215 215 217 219 222 226 229 229
279 279 278 276 274 273 272 273 274 274 273 271 268 267 267 270 271 271 270 271 271 270 269 266 264 261 257 253 250 250 251 252 252 252 252 252 251 251 252 252 252 251 250 248 246 244 243 243 244 245 245 245 245 245 245 244 243 243 244 246 244 239 231 224 220 217 216 215 216 217 218 218 217 216 215 215 216 217 218 219 220 223 226 229 229 227
279 280 279 277 275 273 272 271 271 272 272 272 271 270 270 270 269 268 268 268 270 271 271 268 265 263 260 257 254 252 252 253 254 254 253 252 250 250 251 251 250 249 248 246 245 243 242 241 242 243 244 244 244 244 242 241 240 240 241 243 241 235 227 221 218 216 215 215 216 217 218 218 217 216 215 215 217 219 221 223 224 226 228 229 227 223
278 278 277 276 275 274 273 272 271 271 272 272 271 270 268 267 266 265 265 265 266 268 268 265 264 264 263 260 257 254 253 254 254 255 255 253 251 249 250 251 251 249 247 245 243 242 240 239 240 241 243 244 244 243 241 238 237 237 239 240 236 229 222 219 217 215 214 214 214 215 215 215 214 213 213 215 218 221 223 223 224 224 225 224 222 219
277 276 275 275 275 275 274 274 273 273 273 273 272 269 266 265 264 264 263 262 263 263 262 261 260 260 261 261 259 257 255 254 254 255 256 256 254 251 250 252 252 251 248 246 244 242 240 238 238 239 241 243 244 242 239 237 235 235 236 236 231 224 219 218 217 216 214 213 212 211 211 211 209 208 210 215 220 222 223 222 222 221 221 219 218 218
276 275 275 275 275 275 276 275 274 274 274 274 274 271 268 266 264 262 261 260 259 258 258 259 258 256 255 256 259 259 258 256 256 256 256 257 256 254 253 253 254 253 251 249 246 243 241 238 237 236 238 241 242 242 239 235 234 233 234 233 227 220 217 218 218 217 214 213 211 210 209 208 206 205 207 213 217 220 221 222 221 221 220 219 220 223
276 275 274 274 275 275 275 274 273 272 272 273 275 275 273 269 265 261 259 258 257 256 256 257 257 256 254 253 255 259 259 258 257 257 258 258 258 257 256 256 256 255 254 252 249 247 244 241 238 236 236 238 240 240 238 235 233 232 232 230 224 218 216 219 220 218 215 213 212 210 209 209 207 205 205 208 213 216 218 220 222 222 223 223 226 229
275 274 272 273 274 276 275 273 271 270 270 270 271 273 275 273 268 263 259 258 257 256 256 255 255 255 255 255 255 257 258 258 258 259 259 261 261 261 261 260 259 258 256 254 251 249 246 243 240 237 236 236 238 238 237 234 232 231 230 227 222 217 216 219 221 219 216 214 212 212 211 211 209 207 204 205 207 210 213 216 219 221 223 225 227 230
273 273 272 272 273 274 274 273 272 271 269 268 267 268 271 273 272 268 263 260 259 258 256 254 253 253 254 254 254 255 257 258 258 259 261 262 264 264 264 263 262 259 257 254 252 249 247 244 241 238 236 235 236 237 236 233 231 229 227 225 221 217 216 219 221 220 217 214 213 213 213 213 212 209 205 204 205 207 210 213 215 218 220 222 224 227
275 276 277 278 276 275 275 276 277 275 273 269 265 264 265 269 273 273 270 265 260 258 256 253 252 252 253 254 257 259 261 261 260 259 261 262 264 265 265 264 262 260 257 254 252 249 246 243 240 238 236 235 235 235 234 232 230 227 225 223 219 216 216 220 222 220 217 215 214 214 214 215 214 211 207 205 205 208 210 212 213 214 216 218 221 224
279 280 282 284 284 282 282 284 285 285 281 275 269 264 262 262 266 271 274 271 265 259 255 252 252 252 255 258 262 264 265 264 263 261 260 258 258 260 263 263 262 259 256 254 251 248 245 242 239 237 235 234 233 233 232 230 228 226 224 221 218 216 217 220 222 221 217 215 214 215 215 216 214 211 208 206 207 210 211 211 211 212 214 216 219 223
279 280 283 284 285 285 286 287 288 288 286 283 278 273 268 263 261 263 267 272 272 268 263 260 257 257 257 258 260 262 263 262 261 258 256 254 254 256 259 260 259 258 256 254 251 247 244 241 238 235 233 232 232 231 230 228 226 224 222 220 217 215 217 221 223 221 218 215 215 215 216 216 214 211 209 208 210 211 212 211 211 212 214 217 220 224
275 277 278 280 282 283 284 284 285 285 284 282 280 278 276 273 269 265 264 266 269 272 272 271 267 262 259 257 255 255 256 257 257 254 252 251 252 253 255 256 256 255 255 254 251 247 244 240 237 234 232 231 230 229 228 226 224 223 221 220 217 215 217 220 222 221 218 216 215 215 216 215 214 211 209 210 211 212 212 211 211 213 215 218 221 225
269 270 272 274 276 278 279 279 279 278 277 276 275 275 275 275 274 272 270 267 267 268 270 271 269 264 259 256 253 252 251 252 252 250 248 248 248 249 252 254 254 254 254 253 251 247 244 240 237 234 232 230 229 228 226 225 223 222 221 219 216 215 217 220 222 221 218 216 216 215 215 215 214 212 211 211 212 212 211 211 212 214 216 219 222 225
267 266 266 267 269 270 271 272 272 272 271 271 271 271 271 271 271 270 269 268 267 266 266 268 266 262 258 252 248 247 247 248 248 247 244 245 246 247 249 251 252 252 252 252 250 247 243 240 237 235 232 230 229 228 226 224 222 221 219 218 216 216 217 220 221 220 218 217 216 215 215 215 214 212 212 212 212 212 211 211 212 214 217 219 222 224
273 270 268 266 265 265 265 265 265 266 266 266 266 267 268 268 267 266 264 264 265 265 265 266 264 259 254 247 242 240 240 242 244 243 241 241 242 243 245 247 249 249 248 248 247 245 241 239 236 234 231 229 228 227 226 223 221 219 217 216 215 216 218 219 220 219 218 217 216 215 215 214 213 213 212 212 212 212 211 211 212 214 217 219 221 223
286 283 279 274 270 267 265 264 263 263 263 263 263 263 264 265 266 265 264 263 262 262 263 265 263 259 252 244 238 234 234 237 239 240 238 239 239 240 242 243 245 245 243 242 242 242 239 236 234 231 229 227 225 225 224 222 220 218 217 216 217 218 219 219 219 219 218 217 216 215 214 214 213 213 212 212 211 211 211 211 213 215 217 219 221 222
295 293 290 286 281 276 272 268 266 264 263 263 262 262 262 263 265 266 266 265 262 260 260 262 263 261 256 248 239 232 230 233 236 237 237 237 236 237 238 239 240 240 238 236 236 237 236 235 232 228 226 225 224 223 222 220 219 218 218 218 220 221 221 220 220 219 218 217 216 215 214 214 213 213 212 212 211 211 211 212 213 215 217 218 220 221
294 293 292 290 288 285 281 277 272 269 266 265 264 263 263 264 265 266 267 266 264 261 260 261 261 262 259 254 246 236 230 231 235 237 237 236 235 235 235 236 237 238 237 234 230 230 233 233 231 227 224 223 222 221 219 218 218 217 217 218 219 220 221 221 220 219 217 216 216 215 214 213 213 213 213 212 211 211 211 212 213 215 216 218 219 220
291 291 289 289 288 286 283 281 278 275 272 269 267 265 265 265 266 266 267 266 265 263 262 260 260 260 260 258 253 244 236 233 235 238 239 236 234 234 235 236 237 238 238 236 231 228 228 230 229 226 223 222 221 219 217 216 216 216 216 216 217 217 218 219 218 216 214 214 213 213 213 212 212 212 212 212 211 211 211 212 213 215 216 217 217 218
288 288 287 287 285 282 278 277 278 278 277 274 271 268 266 265 265 266 266 265 264 262 261 261 260 260 260 259 256 251 244 238 237 241 244 240 235 233 234 236 237 238 238 236 233 231 230 230 229 226 222 220 218 216 214 213 214 215 216 216 216 216 216 216 215 212 210 210 210 210 210 210 211 211 212 212 211 211 211 212 213 214 215 216 216 216
283 283 283 282 280 277 276 276 277 278 278 276 274 271 269 267 266 266 265 265 264 262 262 261 260 260 259 258 257 255 250 244 242 245 250 245 238 233 234 236 237 237 236 234 232 231 231 232 231 227 222 218 215 213 211 210 211 213 215 216 216 216 216 215 212 209 208 207 207 208 208 208 209 210 211 211 211 211 211 212 213 214 215 215 216 216
280 279 279 278 277 276 275 275 275 276 277 277 276 275 273 270 269 267 266 266 265 264 264 263 262 260 258 257 257 256 252 247 246 249 252 248 241 236 235 236 237 237 235 233 231 229 228 230 231 230 224 216 212 209 209 208 208 210 213 215 216 217 217 216 212 209 207 207 207 207 207 207 207 208 209 210 210 210 210 211 212 213 214 215 215 216
279 278 278 278 278 276 274 273 273 274 275 276 277 276 274 273 271 269 267 266 265 265 265 265 263 260 257 256 255 255 254 250 248 248 249 247 243 238 235 236 237 237 235 233 231 228 226 227 229 230 226 217 210 206 205 206 206 208 209 212 214 215 217 216 214 210 208 207 207 207 207 207 207 208 209 209 209 209 209 210 211 212 213 213 214 215
278 277 277 277 277 276 273 272 273 274 274 275 275 274 273 272 271 270 269 268 267 266 266 266 265 263 260 257 256 255 254 252 248 245 244 245 243 240 236 236 237 237 236 234 231 228 225 224 224 226 225 219 212 206 203 203 204 205 206 209 211 212 214 215 214 211 209 208 208 207 207 207 207 208 208 208 208 208 208 209 210 211 211 212 212 212
277 276 276 276 275 274 273 273 273 273 273 273 273 274 274 273 272 271 271 270 269 267 266 265 265 265 264 262 260 258 256 252 247 242 239 239 239 239 237 237 237 238 238 237 233 229 225 221 219 218 218 217 214 210 207 204 203 203 205 207 209 211 212 212 212 211 209 208 208 208 207 207 207 208 208 208 207 206 206 207 208 209 209 209 208 208
275 274 273 272 271 271 270 271 271 270 270 271 272 273 275 275 275 274 273 272 270 269 267 266 266 266 266 265 264 262 260 255 249 242 237 235 235 236 237 237 237 238 238 238 235 231 227 223 219 216 214 212 211 211 209 207 205 204 204 205 207 209 210 211 211 210 209 208 208 207 207 207 207 207 207 207 207 206 207 207 207 207 206 204 203 203
273 272 271 270 270 269 269 269 269 269 268 268 269 271 272 274 274 275 274 273 271 270 269 268 268 268 267 267 266 264 262 259 254 249 242 238 236 236 238 238 238 238 238 236 234 230 228 225 224 222 219 214 210 208 207 206 206 206 204 202 202 205 208 209 209 209 209 208 207 207 206 207 207 207 207 208 208 208 209 208 208 207 206 204 201 199
273 272 271 271 271 270 270 270 271 270 268 267 267 268 269 271 271 271 271 271 270 270 270 271 270 270 270 269 266 264 261 259 256 252 247 241 238 238 238 239 239 238 237 234 231 229 228 226 225 223 221 218 214 210 208 207 207 207 206 204 203 205 207 208 208 208 208 207 207 207 207 207 207 207 207 208 209 211 211 211 209 208 208 207 206 203
273 272 272 272 272 272 272 273 272 272 271 270 270 270 270 270 270 269 269 269 269 269 270 270 268 267 268 269 267 263 259 256 255 252 248 243 240 239 239 239 239 238 235 232 229 228 228 227 225 223 221 218 215 211 209 208 208 208 208 207 207 206 206 206 207 207 207 206 206 207 207 207 207 207 207 208 209 211 212 212 211 210 209 208 209 209
273 272 271 271 271 272 272 272 272 272 272 272 272 272 272 272 270 269 267 266 266 267 267 266 264 263 263 266 267 264 259 255 252 250 247 243 240 239 239 239 238 237 233 229 227 227 228 227 225 223 222 220 217 213 210 208 207 207 207 208 207 203 200 203 205 206 206 206 206 206 206 207 207 207 207 207 209 210 211 210 210 210 210 210 210 210
272 272 273 273 274 274 274 273 273 273 272 271 272 273 274 274 272 269 266 265 264 264 264 263 262 261 262 264 264 263 259 255 251 249 247 244 242 240 239 238 236 234 231 229 227 226 225 223 222 221 221 220 218 216 214 211 208 206 206 207 208 206 203 204 205 205 204 204 205 205 206 206 206 207 207 207 208 209 210 209 209 208 208 209 209 210
279 280 280 279 278 277 276 275 274 273 272 271 271 271 272 273 272 270 267 266 264 263 263 262 261 260 260 260 260 259 257 254 251 249 248 246 244 241 238 235 232 231 230 230 230 227 223 219 217 217 218 218 217 216 215 213 210 208 207 207 208 209 211 211 209 206 204 203 203 204 205 205 206 206 206 206 207 208 209 209 208 207 205 205 206 207
288 287 284 282 280 277 276 275 275 274 273 273 272 271 271 271 271 269 268 266 265 263 263 262 261 259 258 257 256 255 253 252 250 249 248 246 244 240 235 231 229 229 230 231 231 228 224 220 217 215 214 214 214 215 216 215 212 209 207 207 207 208 209 210 210 208 206 204 204 204 204 205 205 205 205 205 206 207 208 209 208 206 204 203 203 203
287 285 284 283 280 278 277 276 275 274 273 273 272 270 270 269 269 268 267 265 264 263 263 262 261 259 258 255 253 252 251 248 246 244 243 242 240 236 230 226 226 228 231 231 229 226 223 221 219 217 214 211 209 210 214 216 214 211 208 207 206 206 206 207 209 209 209 207 205 204 204 203 203 204 205 205 205 206 207 208 208 206 204 202 201 201
287 286 285 283 281 280 279 277 276 274 272 270 269 269 269 268 267 266 265 264 263 262 262 261 260 259 257 255 253 253 253 251 249 244 239 235 232 229 224 221 221 224 227 227 226 223 221 220 220 220 219 216 212 210 211 213 213 212 210 208 207 206 206 207 208 209 209 209 208 207 205 204 203 203 204 204 204 205 205 206 206 205 203 201 200 200
288 287 285 283 282 280 279 277 276 274 272 270 269 268 268 268 267 266 265 264 263 262 261 260 258 257 256 255 255 255 254 252 248 242 236 230 225 221 217 215 215 217 218 218 217 215 214 214 216 218 221 220 218 215 213 212 212 212 211 209 208 207 207 208 208 209 209 209 209 208 207 206 206 206 206 204 204 204 204 205 204 203 201 199 198 199
289 287 286 283 281 280 278 277 275 273 272 270 269 268 268 267 267 266 265 264 263 261 260 258 257 256 257 257 257 255 252 247 242 235 229 224 219 215 212 211 211 210 209 209 208 207 206 206 208 211 215 216 217 215 214 212 211 210 209 209 209 209 208 208 208 209 209 209 209 208 207 206 207 207 207 205 204 204 204 204 203 202 200 197 196 197
288 287 286 283 281 279 278 277 276 274 272 270 269 268 267 266 265 264 264 263 261 258 255 255 255 257 259 259 258 254 249 242 234 226 221 218 214 212 209 209 208 206 203 201 200 199 198 197 197 201 207 211 213 213 213 212 210 207 205 207 208 209 209 208 208 209 209 209 209 208 206 205 205 205 206 205 204 203 203 203 203 202 199 196 194 194